www.pogodaiklimat.ru
ПОГОДА на Базе ВВС Альтус
Время
и дата
22:55 04.02
23:55 04.02
00:55 05.02
01:55 05.02
02:55 05.02
03:55 05.02
04:55 05.02
05:55 05.02
06:55 05.02
07:55 05.02
08:55 05.02
09:55 05.02
10:55 05.02
11:55 05.02
12:55 05.02
13:55 05.02
14:55 05.02
15:55 05.02
16:27 05.02
16:55 05.02
17:55 05.02
18:55 05.02
19:55 05.02
20:55 05.02
21:55 05.02
22:55 05.02
23:55 05.02
00:55 06.02
01:55 06.02
02:55 06.02
03:55 06.02
04:55 06.02
05:55 06.02
06:55 06.02
07:55 06.02
08:55 06.02
09:55 06.02
11:55 06.02
12:55 06.02
13:55 06.02
14:55 06.02
15:55 06.02
16:55 06.02
17:55 06.02
18:55 06.02
19:55 06.02
20:32 06.02
20:55 06.02
Ветер
(напр.,м/с)
Видим. Явления Облачность Т
(С)
Тd
(С)
f
(%)
Тe
(С)
Тes
(С)
Комфортность P
(гПа)
Po
(гПа)
Тmin
(С)
Tmax
(С)
R
(мм)
R24
(мм)
S
(см)
СВ 4 16 км ясно +3.1 +1.8 91 -2 -2 1019.6 969.4
В 3 16 км ясно +2.0 +1.1 94 -2 -2 1019.8 969.7 +2.0 +13.9
В 2 16 км ясно +2.0 +1.9 99 -2 -2 1019.0 969.1
штиль 0 16 км ясно +2.6 +2.0 96 +1 +1 1018.9 969.1
С 3 16 км ясно 0.0 -0.1 99 -5 -5 1019.1 969.1
СВ 3 16 км ясно -1.4 -1.5 99 -7 -7 1018.8 968.8
штиль 0 16 км ясно 0.0 -0.1 99 -1 -1 1019.5 969.4
СВ 2 16 км ясно -1.2 -1.3 99 -5 -5 1019.7 969.4 -1.7 +2.8
СВ 5 16 км ясно -1.0 -1.1 99 -8 -8 1019.8 969.4
штиль 0 16 км ясно -0.5 -0.6 99 -2 -2 1020.6 970.1
СВ 2 16 км ясно +3.0 +2.9 99 0 0 1020.6 970.1
С 2 16 км ясно +7.3 +3.0 74 +5 +7 1021.1 970.7
СВ 2 16 км ясно +10.8 +2.6 57 +10 +14 1020.9 970.7
В 3 16 км ясно +13.2 +2.4 48 +12 +18 1020.5 970.4 -1.4 +13.2
В 5 16 км ясно +15.6 +3.7 45 +15 +19 1019.0 969.1
ЮВ 4 16 км ясно +17.6 +4.9 43 +17 +23 1017.5 967.8
ЮВ 7 16 км ясно +17.3 +4.9 44 +16 +18 1016.6 966.8
ЮВ 5 16 км ясно +17.1 +5.4 46 +16 +19 1016.1 966.2
Ю 7 16 км ясно +17.0 +5.0 45 +16 +17 1016.1 966.2
Ю 6 16 км ясно +16.4 +5.4 48 +15 +16 1016.1 966.2
ЮВ 5 16 км ясно +13.8 +4.9 55 +12 +12 1015.9 965.9 +13.3 +17.8
В 3 16 км ясно +9.3 +4.1 70 +7 +7 1016.2 965.9
В 4 16 км ясно +5.4 +2.6 82 +1 +1 1016.0 965.6
В 5 16 км ясно +4.9 +2.8 86 0 0 1015.1 964.9
В 5 16 км ясно +6.7 +3.1 78 +3 +3 1014.1 964.3
ЮВ 4 16 км ясно +5.6 +2.6 81 +2 +2 1013.7 963.9
ЮВ 4 16 км ясно +4.7 +2.7 87 0 0 1013.2 963.6 +4.7 +13.7
ЮВ 3 16 км ясно +4.5 +3.2 91 +1 +1 1012.4 963.0
ЮВ 3 16 км ясно +3.4 +2.8 96 -1 -1 1011.7 962.3
ЮВ 3 16 км ясно +3.2 +3.1 99 -1 -1 1011.4 962.0
ЮВ 3 16 км ясно +2.8 +2.7 99 -2 -2 1011.0 961.7
ЮВ 4 16 км ясно +3.1 +3.0 99 -2 -2 1010.4 961.0
ЮВ 3 16 км ясно +2.7 +2.6 99 -2 -2 1010.6 961.0 +2.1 +5.1
ЮВ 5 16 км ясно +3.7 +3.3 97 -2 -2 1010.7 961.0
ЮВ 4 16 км ясно +2.9 +2.8 99 -2 -2 1010.7 960.7
ЮВ 5 16 км ясно +7.4 +5.9 90 +3 +4 1010.5 960.7
Ю 5 16 км ясно +12.3 +6.3 67 +10 +11 1010.1 960.7
Ю 6 16 км 2/0 6600 m
[Ci]
+17.7 +7.1 50 +17 +20 1009.3 960.1 +2.5 +17.7
Ю 7 16 км 8/0 6600 m
[Ci]
+19.9 +7.3 44 +20 +22 1007.5 958.5
Ю 5 16 км 8/0 6600 m
[Ci]
+21.3 +7.9 42 +22 +26 комфорт 1007.0 958.1
Ю 6 16 км 8/0 5700 m
[Ac Ci]
+22.1 +8.2 41 +23 +25 комфорт 1006.2 957.5
ЮВ 5 16 км 8/0 5400 m
[Ac]
+24.4 +8.3 36 +25 +26 комфорт 1005.6 956.9
В 5 16 км 2/0 6000 m
[Ac]
+25.0 +8.5 35 +25 +27 комфорт 1005.2 956.5
В 5 16 км 5/0 6000 m
[Ac]
+19.7 +9.6 52 +21 +21 комфорт 1005.8 956.9 +17.8 +25.2
В 5 16 км 5/0 6000 m
[Ac]
+15.9 +8.9 63 +15 +15 1006.3 957.2
В 6 16 км 5/0 5400 m
[Ac]
+18.1 +9.7 58 +18 +18 1007.2 958.1
С 10 16 км 8/0 5400 m
[Ac]
+17.0 +8.0 55 +15 +15 1008.6 959.4
СВ 13
{16}
16 км 5/2 1050 m
[Ac]
+15.3 -0.5 34 +13 +13 1009.3 960.1
Местоположение метеостанции Altus Air Force Base: широта 34.6500 долгота -99.2667 высота над уровнем моря 420 м.
В архиве по умолчанию представлена погода на Базе ВВС Альтус за последние 1-2 суток. Обновление информации о фактической погоде в базе происходит ежечасно! Архивные данные за месяц целиком и за предыдущие месяцы Вы можете получить, выбрав интересующий диапазон дат из раскрывающегося списка и нажав кнопку "Ввод!".
Внимание! Архив погоды МЕТАР в базе сайта по станциям, не включенным в климатический монитор, хранится не более 60 дней. Нет смысла пытаться выбрать более раннюю дату.
*Определитесь, кто Вы:
Внимание! Время в таблицах - местное (без учета летнего времени). Для получения всемирного времени необходимо вычесть поправку, которая равна -6 ч.
Смотрите также архив погоды в соседних городах и на ближайших метеорологических станциях:
Партнеры нашего сайта:      
Пояснения к столбцам:
  • Ветер - указаны скорость ветра в м/с - средняя за 10 мин, порывы в срок и между сроками (в фигурных скобках) и направление, откуда дует ветер: С - северный,
  • СВ - северо-восточный, В - восточный, ЮВ - юго-восточный, Ю - южный, ЮЗ - юго-западный, З - западный, СЗ - северо-западный.
  • Видимость - горизонтальная дальность видимости в метрах или километрах. При видимости от 1 до 10 км при отсутствии осадков обычно наблюдается дымка, при ухудшении видимости до 1 км и менее - туман. В сухую погоду видимость может ухудшаться дымом, пылью или мглою.
  • Явления - указаны атмосферные явления, наблюдавшиеся в срок или в последний час перед сроком; фигурными скобками обозначены явления, наблюдавшиеся между сроками (за 1-3 часа до срока); квадратными скобками обозначены град или гололедные отложения с указанием их диаметра в мм.
  • Облачность - указаны через наклонную черту общая и нижняя облачность в баллах и высота нижней границы облаков в метрах; квадратными скобками обозначены формы облаков: Ci - перистые, Cs - перисто-слоистые, Cc - перисто-кучевые, Ac - высококучевые, As - высокослоистые, Sc - слоисто-кучевые, Ns - слоисто-дождевые, Cu - кучевые, Cb - кучево-дождевые. Подробнее классификацию облаков см. в Атласе облаков (PDF).
  • T - Температура воздуха - температура, измеренная на высоте 2 м над землей.
  • Td - Температура точки росы - температура, при понижении до которой содержащийся в воздухе водяной пар достигнет насыщения.
  • f - Относительная влажность воздуха - влажноcть воздуха, измеренная на высоте 2 м над землей.
  • Te - Эффективная температура - температура, которую ощущает одетый по сезону человек в тени. Характеристика душности погоды. При расчете учитывается влияние влажности воздуха и скорости ветра на теплоощущения человека.
  • Tes - Эффективная температура на солнце - температура, которую ощущает человек, с поправкой на солнечный нагрев. Характеристика знойности погоды. Зависит от высоты солнца над горизонтом, облачности и скорости ветра. Ночью, в пасмурную погоду, а также при ветре 12 м/с и более поправка равна нулю.
  • P - Атмосферное давление - приведенное к уровню моря атмосферное давление.
  • Po - Атмосферное давление - измеренное на уровне метеостанции атмосферное давление.
  • Tmin - Минимальная температура - минимум температуры воздуха на высоте 2 м над землей.
  • Tmax - Максимальная температура - максимум температуры воздуха на высоте 2 м над землей.
  • R - Количество осадков - Количество выпавших осадков за период времени, мм. При наведении курсора мыши на число - период времени, за который выпало указанное количество осадков.
  • R24 - Количество осадков - Количество выпавших осадков за 24 часа, мм.
  • S - Снежный покров - Высота снежного покрова, см. При наведении курсора мыши на число - состояние снежного покрова и степень покрытия местности в баллах.